Back to catalog

CZ-6A DEB

AlivePO
NORAD 54888·DEBRIS·🇨🇳 China

Launched Nov 11, 2022 from Taiyuan Satellite Launch Center

Loading…

Next Passes (next 24 hours)

TLE

FreshSource: Space-Track

Epoch: Sep 14, 2026, 06:53 UTC

1 54888U 22151PZ  26257.28698063  .00028954  00000-0  20080-2 0  9998
2 54888  98.6360   7.8468 0054139 229.0880 130.5648 15.04357615205170

Track CZ-6A DEB in real time with AllMySat

Download on the App Store